sat.trackr.live / text

‹ back to catalog

STARLINK-3093

NORAD 49141 · 2021-082M

PAYLOAD ACTIVE UNKNOWN

§ Identity

Operator
Country
US
Launch date
2021-09-14
Launch site
AFWTR
Launch vehicle
Mass (kg)
RCS (m²)

Purposes: comms

External: N2YO · Heavens-Above · Gunter

§ Orbital elements

Epoch: 2026-05-25T03:35:56.158656Z

Period
96.11 min
Inclination
69.9992°
Eccentricity
0.0003446
Mean motion
14.98324439 rev/d
Perigee alt
569.7 km
Apogee alt
574.5 km
Semi-major
6,950.2 km
B*
-7.6274e-5
RAAN
101.6830°
Arg perigee
265.7536°
Mean anomaly
94.3229°
Rev number
25,863

§ Raw data

STARLINK-30931 49141U 21082M   26145.14995554 -.00001003  00000+0 -76274-4 0  99972 49141  69.9992 101.6830 0003446 265.7536  94.3229 14.98324439258635

JSON: /api/v1/satellites/49141 · /tle

For live sub-satellite position, see the globe view (requires WebGL).

§ Visibility from observer

Set your observer location to see the next 7 days of passes ≥ 10°. The values pass through the URL so the page stays shareable.

No JS? Fill the form by hand. The geolocation button needs JavaScript.